CJT590 CYQR-CYWG

Flight info

Callsign CJT590
Flight time 0h 51m
Altitude 33000
Route CYQR2/31 ILUKI DCT DARUK DCT SEGAP BEFAN5
Aircraft B752/M-SDE3FGHIM3RWXY/LB1

Departure

Time 2026-05-05 12:42
Airport Regina International Airport (CYQR)

Arrival

Time 2026-05-05 13:34
Airport Winnipeg / James Armstrong Richardson International Airport (CYWG)
Time Latitude Longitude Altitude Speed Heading
2026-05-05 12:22 50.43555 -104.66037 1894 ft 0 kts 47°
2026-05-05 12:33 50.43554 -104.66038 1894 ft 1 kts 48°
2026-05-05 12:33 50.43544 -104.66055 1894 ft 2 kts 47°
2026-05-05 12:33 50.43534 -104.66072 1894 ft 2 kts 48°
2026-05-05 12:34 50.43524 -104.66090 1894 ft 2 kts 47°
2026-05-05 12:34 50.43515 -104.66108 1894 ft 2 kts 66°
2026-05-05 12:34 50.43512 -104.66131 1894 ft 2 kts 93°
2026-05-05 12:34 50.43516 -104.66153 1894 ft 2 kts 121°
2026-05-05 12:35 50.43521 -104.66165 1894 ft 1 kts 137°
2026-05-05 12:35 50.43525 -104.66170 1894 ft 0 kts 138°
2026-05-05 12:37 50.43520 -104.66163 1894 ft 6 kts 139°
2026-05-05 12:38 50.43462 -104.66083 1895 ft 15 kts 138°
2026-05-05 12:38 50.43370 -104.65954 1895 ft 19 kts 137°
2026-05-05 12:38 50.43267 -104.65810 1895 ft 20 kts 139°
2026-05-05 12:38 50.43175 -104.65680 1895 ft 16 kts 137°
2026-05-05 12:39 50.43084 -104.65551 1895 ft 18 kts 137°
2026-05-05 12:39 50.42987 -104.65413 1895 ft 19 kts 138°
2026-05-05 12:39 50.42912 -104.65308 1895 ft 15 kts 138°
2026-05-05 12:39 50.42830 -104.65193 1895 ft 16 kts 138°
2026-05-05 12:40 50.42740 -104.65066 1895 ft 18 kts 137°
2026-05-05 12:40 50.42652 -104.64941 1895 ft 16 kts 138°
2026-05-05 12:40 50.42568 -104.64893 1895 ft 7 kts 182°
2026-05-05 12:40 50.42555 -104.64894 1895 ft 0 kts 184°
2026-05-05 12:41 50.42548 -104.64895 1895 ft 4 kts 184°
2026-05-05 12:41 50.42488 -104.64918 1896 ft 10 kts 206°
2026-05-05 12:41 50.42451 -104.64995 1896 ft 6 kts 274°
2026-05-05 12:41 50.42462 -104.65031 1896 ft 0 kts 313°
2026-05-05 12:42 50.42518 -104.65115 1896 ft 36 kts 317°
2026-05-05 12:42 50.42960 -104.65745 1898 ft 133 kts 319°
2026-05-05 12:42 50.43788 -104.66924 2349 ft 184 kts 318°
2026-05-05 12:42 50.44776 -104.68334 3258 ft 188 kts 320°
2026-05-05 12:43 50.45708 -104.69704 4077 ft 192 kts 318°
2026-05-05 12:43 50.46713 -104.71206 4870 ft 212 kts 318°
2026-05-05 12:43 50.47852 -104.72903 5192 ft 236 kts 318°
2026-05-05 12:43 50.49033 -104.74671 6366 ft 241 kts 319°
2026-05-05 12:44 50.50431 -104.76033 7489 ft 244 kts 345°
2026-05-05 12:44 50.52098 -104.76050 8661 ft 250 kts 13°
2026-05-05 12:44 50.53595 -104.74657 9743 ft 264 kts 41°
2026-05-05 12:44 50.54572 -104.72158 10692 ft 285 kts 64°
2026-05-05 12:45 50.54883 -104.68923 11274 ft 318 kts 85°
2026-05-05 12:45 50.54713 -104.65356 11861 ft 339 kts 88°
2026-05-05 12:45 50.54589 -104.61597 12631 ft 351 kts 86°
2026-05-05 12:45 50.54495 -104.57785 13630 ft 354 kts 86°
2026-05-05 12:46 50.54419 -104.53919 14593 ft 359 kts 86°
2026-05-05 12:46 50.54352 -104.49985 15533 ft 364 kts 85°
2026-05-05 12:46 50.54289 -104.46012 16450 ft 369 kts 85°
2026-05-05 12:46 50.54228 -104.41979 17326 ft 374 kts 85°
2026-05-05 12:47 50.54166 -104.37884 18167 ft 379 kts 85°
2026-05-05 12:47 50.54102 -104.33746 19004 ft 384 kts 86°
2026-05-05 12:47 50.54037 -104.29531 19806 ft 389 kts 86°
2026-05-05 12:47 50.53969 -104.25266 20608 ft 394 kts 86°
2026-05-05 12:48 50.53900 -104.20966 21377 ft 398 kts 86°
2026-05-05 12:48 50.53828 -104.16610 22123 ft 403 kts 86°
2026-05-05 12:48 50.53754 -104.12204 22871 ft 407 kts 86°
2026-05-05 12:48 50.53677 -104.07762 23580 ft 411 kts 86°
2026-05-05 12:49 50.53598 -104.03275 24289 ft 415 kts 86°
2026-05-05 12:49 50.53516 -103.98744 24952 ft 419 kts 86°
2026-05-05 12:49 50.53432 -103.94163 25606 ft 423 kts 86°
2026-05-05 12:49 50.53346 -103.89545 26251 ft 427 kts 86°
2026-05-05 12:50 50.53256 -103.84894 26908 ft 430 kts 86°
2026-05-05 12:50 50.53165 -103.80200 27486 ft 434 kts 87°
2026-05-05 12:50 50.53070 -103.75469 28087 ft 437 kts 87°
2026-05-05 12:50 50.52973 -103.70720 28805 ft 437 kts 87°
2026-05-05 12:51 50.52873 -103.65987 29567 ft 435 kts 87°
2026-05-05 12:51 50.52773 -103.61266 30282 ft 433 kts 86°
2026-05-05 12:51 50.52671 -103.56567 30897 ft 432 kts 87°
2026-05-05 12:51 50.52568 -103.51868 31348 ft 432 kts 87°
2026-05-05 12:52 50.52463 -103.47163 31703 ft 434 kts 87°
2026-05-05 12:52 50.52356 -103.42447 32040 ft 435 kts 87°
2026-05-05 12:52 50.52246 -103.37697 32377 ft 436 kts 87°
2026-05-05 12:52 50.52133 -103.32940 32694 ft 437 kts 88°
2026-05-05 12:53 50.52018 -103.28135 32926 ft 440 kts 88°
2026-05-05 12:53 50.51900 -103.23293 32992 ft 442 kts 88°
2026-05-05 12:53 50.51658 -103.13697 32999 ft 436 kts 88°
2026-05-05 12:54 50.51285 -102.99395 32995 ft 436 kts 88°
2026-05-05 12:55 50.51028 -102.89901 32992 ft 436 kts 88°
2026-05-05 12:55 50.50762 -102.80378 32991 ft 437 kts 88°
2026-05-05 12:56 50.50488 -102.70873 32990 ft 437 kts 88°
2026-05-05 12:56 50.50207 -102.61357 32985 ft 438 kts 88°
2026-05-05 12:57 50.49913 -102.51846 32984 ft 438 kts 90°
2026-05-05 12:57 50.48589 -102.42476 32990 ft 445 kts 104°
2026-05-05 12:58 50.46652 -102.33297 32991 ft 445 kts 105°
2026-05-05 12:58 50.44644 -102.24077 32998 ft 446 kts 105°
2026-05-05 12:59 50.42613 -102.14884 32994 ft 447 kts 106°
2026-05-05 12:59 50.40569 -102.05706 32984 ft 446 kts 106°
2026-05-05 13:00 50.37492 -101.91973 32979 ft 447 kts 106°
2026-05-05 13:01 50.33360 -101.73679 32984 ft 446 kts 106°
2026-05-05 13:01 50.31280 -101.64532 32981 ft 447 kts 106°
2026-05-05 13:02 50.29191 -101.55381 32985 ft 448 kts 106°
2026-05-05 13:02 50.27093 -101.46236 32989 ft 448 kts 106°
2026-05-05 13:03 50.24990 -101.37101 32987 ft 447 kts 106°
2026-05-05 13:03 50.22876 -101.27961 32982 ft 448 kts 107°
2026-05-05 13:04 50.20751 -101.18816 32978 ft 448 kts 107°
2026-05-05 13:04 50.18625 -101.09702 32977 ft 447 kts 107°
2026-05-05 13:05 50.16496 -101.00614 32974 ft 446 kts 107°
2026-05-05 13:05 50.14360 -100.91536 32970 ft 448 kts 107°
2026-05-05 13:06 50.12211 -100.82440 32971 ft 449 kts 107°
2026-05-05 13:06 50.10051 -100.73335 32967 ft 449 kts 107°
2026-05-05 13:07 50.07886 -100.64246 32966 ft 449 kts 108°
2026-05-05 13:07 50.05712 -100.55161 32968 ft 449 kts 107°
2026-05-05 13:08 50.03532 -100.46085 32968 ft 449 kts 108°
2026-05-05 13:08 50.01346 -100.37025 32964 ft 449 kts 107°
2026-05-05 13:09 49.99134 -100.27892 32963 ft 449 kts 108°
2026-05-05 13:09 49.96933 -100.18841 32967 ft 449 kts 109°
2026-05-05 13:10 49.94721 -100.09787 32966 ft 450 kts 109°
2026-05-05 13:10 49.92498 -100.00724 32969 ft 451 kts 109°
2026-05-05 13:11 49.90866 -99.91406 32971 ft 447 kts 93°
2026-05-05 13:11 49.90622 -99.86575 32592 ft 455 kts 91°
2026-05-05 13:11 49.90401 -99.81703 32167 ft 453 kts 91°
2026-05-05 13:12 49.90175 -99.76891 31750 ft 446 kts 91°
2026-05-05 13:12 49.89952 -99.72143 31323 ft 441 kts 90°
2026-05-05 13:12 49.89731 -99.67504 30828 ft 430 kts 90°
2026-05-05 13:12 49.89511 -99.62858 30405 ft 443 kts 90°
2026-05-05 13:13 49.89281 -99.58015 29859 ft 456 kts 91°
2026-05-05 13:13 49.89044 -99.53164 29274 ft 449 kts 91°
2026-05-05 13:13 49.88809 -99.48402 28694 ft 443 kts 91°
2026-05-05 13:13 49.88576 -99.43685 28058 ft 439 kts 91°
2026-05-05 13:14 49.88342 -99.38997 27399 ft 436 kts 90°
2026-05-05 13:14 49.88109 -99.34355 26749 ft 432 kts 91°
2026-05-05 13:14 49.87873 -99.29698 26092 ft 428 kts 91°
2026-05-05 13:14 49.87641 -99.25140 25455 ft 424 kts 91°
2026-05-05 13:15 49.87409 -99.20621 24818 ft 421 kts 91°
2026-05-05 13:15 49.87177 -99.16143 24164 ft 417 kts 91°
2026-05-05 13:15 49.86945 -99.11713 23502 ft 413 kts 91°
2026-05-05 13:15 49.86714 -99.07321 22862 ft 408 kts 91°
2026-05-05 13:16 49.86485 -99.02983 22222 ft 404 kts 91°
2026-05-05 13:16 49.86255 -98.98679 21602 ft 400 kts 91°
2026-05-05 13:16 49.86027 -98.94439 21003 ft 395 kts 91°
2026-05-05 13:16 49.85800 -98.90247 20410 ft 390 kts 91°
2026-05-05 13:17 49.85575 -98.86109 19849 ft 384 kts 91°
2026-05-05 13:17 49.85352 -98.82035 19305 ft 378 kts 91°
2026-05-05 13:17 49.85130 -98.78021 18784 ft 372 kts 91°
2026-05-05 13:17 49.84911 -98.74070 18292 ft 364 kts 91°
2026-05-05 13:18 49.84696 -98.70242 17848 ft 355 kts 91°
2026-05-05 13:18 49.84483 -98.66415 17454 ft 361 kts 91°
2026-05-05 13:18 49.84265 -98.62544 16998 ft 362 kts 91°
2026-05-05 13:18 49.84046 -98.58705 16518 ft 358 kts 91°
2026-05-05 13:19 49.83828 -98.54901 16097 ft 352 kts 91°
2026-05-05 13:19 49.83615 -98.51236 16054 ft 334 kts 91°
2026-05-05 13:19 49.83412 -98.47752 15754 ft 320 kts 90°
2026-05-05 13:19 49.83217 -98.44372 15402 ft 315 kts 90°
2026-05-05 13:20 49.83022 -98.40998 15043 ft 316 kts 90°
2026-05-05 13:20 49.82825 -98.37628 14675 ft 314 kts 90°
2026-05-05 13:20 49.82628 -98.34289 14309 ft 311 kts 91°
2026-05-05 13:20 49.82431 -98.30957 13939 ft 308 kts 91°
2026-05-05 13:21 49.82235 -98.27674 13567 ft 307 kts 91°
2026-05-05 13:21 49.82039 -98.24404 13194 ft 305 kts 91°
2026-05-05 13:21 49.81844 -98.21151 12820 ft 303 kts 91°
2026-05-05 13:21 49.81649 -98.17932 12449 ft 300 kts 91°
2026-05-05 13:22 49.81455 -98.14754 12081 ft 296 kts 91°
2026-05-05 13:22 49.81263 -98.11588 11729 ft 297 kts 91°
2026-05-05 13:22 49.81069 -98.08421 11361 ft 295 kts 91°
2026-05-05 13:22 49.80876 -98.05314 10992 ft 285 kts 90°
2026-05-05 13:23 49.80690 -98.02312 10644 ft 277 kts 90°
2026-05-05 13:23 49.80508 -97.99360 10302 ft 277 kts 90°
2026-05-05 13:23 49.80355 -97.96398 9980 ft 276 kts 89°
2026-05-05 13:23 49.80214 -97.93450 9699 ft 275 kts 89°
2026-05-05 13:24 49.80071 -97.90509 9421 ft 274 kts 89°
2026-05-05 13:24 49.79928 -97.87573 9149 ft 273 kts 89°
2026-05-05 13:24 49.79784 -97.84653 8876 ft 273 kts 89°
2026-05-05 13:24 49.79641 -97.81745 8600 ft 271 kts 89°
2026-05-05 13:25 49.79497 -97.78846 8334 ft 271 kts 89°
2026-05-05 13:25 49.79352 -97.75942 7994 ft 271 kts 89°
2026-05-05 13:25 49.79207 -97.73062 7658 ft 268 kts 89°
2026-05-05 13:25 49.79064 -97.70244 7359 ft 258 kts 89°
2026-05-05 13:26 49.78925 -97.67519 7114 ft 252 kts 89°
2026-05-05 13:26 49.78789 -97.64810 6859 ft 254 kts 89°
2026-05-05 13:26 49.78651 -97.62085 6594 ft 255 kts 89°
2026-05-05 13:26 49.78511 -97.59368 6324 ft 253 kts 89°
2026-05-05 13:27 49.78367 -97.56675 6059 ft 251 kts 92°
2026-05-05 13:27 49.78016 -97.54035 5682 ft 253 kts 98°
2026-05-05 13:27 49.77614 -97.51391 5097 ft 252 kts 98°
2026-05-05 13:27 49.77220 -97.48819 4558 ft 242 kts 98°
2026-05-05 13:28 49.76839 -97.46346 4036 ft 233 kts 97°
2026-05-05 13:28 49.76473 -97.43989 3711 ft 224 kts 97°
2026-05-05 13:28 49.76110 -97.41625 3209 ft 230 kts 98°
2026-05-05 13:28 49.75773 -97.39243 2997 ft 220 kts 93°
2026-05-05 13:29 49.75572 -97.37023 2998 ft 199 kts 92°
2026-05-05 13:29 49.75378 -97.34927 3036 ft 197 kts 92°
2026-05-05 13:29 49.75180 -97.32770 3012 ft 205 kts 93°
2026-05-05 13:29 49.75014 -97.30610 2987 ft 198 kts 82°
2026-05-05 13:30 49.75456 -97.28732 2998 ft 179 kts 43°
2026-05-05 13:30 49.76409 -97.27610 3003 ft 170 kts 28°
2026-05-05 13:30 49.77488 -97.26990 2997 ft 164 kts
2026-05-05 13:30 49.78614 -97.26727 2993 ft 162 kts
2026-05-05 13:31 49.79691 -97.26453 2851 ft 150 kts
2026-05-05 13:31 49.80692 -97.26211 2638 ft 143 kts
2026-05-05 13:31 49.81672 -97.25982 2455 ft 138 kts
2026-05-05 13:31 49.82605 -97.25764 2248 ft 134 kts
2026-05-05 13:32 49.83518 -97.25554 2047 ft 128 kts
2026-05-05 13:32 49.84351 -97.25359 1851 ft 117 kts
2026-05-05 13:32 49.85175 -97.25175 1708 ft 121 kts
2026-05-05 13:32 49.85986 -97.24989 1532 ft 116 kts
2026-05-05 13:33 49.86785 -97.24807 1381 ft 117 kts
2026-05-05 13:33 49.87594 -97.24622 1218 ft 118 kts
2026-05-05 13:33 49.88408 -97.24447 1027 ft 118 kts
2026-05-05 13:33 49.89229 -97.24260 882 ft 123 kts
2026-05-05 13:34 49.90051 -97.24065 785 ft 114 kts
2026-05-05 13:34 49.90717 -97.23917 778 ft 65 kts
2026-05-05 13:34 49.91080 -97.23824 780 ft 42 kts
2026-05-05 13:34 49.91310 -97.23767 780 ft 18 kts 11°
2026-05-05 13:35 49.91425 -97.23671 780 ft 19 kts 37°
2026-05-05 13:35 49.91525 -97.23548 780 ft 16 kts 39°
2026-05-05 13:35 49.91545 -97.23419 779 ft 11 kts 152°
2026-05-05 13:35 49.91460 -97.23420 779 ft 13 kts 187°
2026-05-05 13:36 49.91361 -97.23443 779 ft 15 kts 189°
2026-05-05 13:36 49.91247 -97.23468 779 ft 17 kts 188°
2026-05-05 13:36 49.91121 -97.23495 778 ft 15 kts 184°
2026-05-05 13:36 49.91009 -97.23459 778 ft 17 kts 156°
2026-05-05 13:37 49.90887 -97.23371 776 ft 20 kts 155°
2026-05-05 13:37 49.90754 -97.23284 775 ft 21 kts 166°
2026-05-05 13:37 49.90602 -97.23327 774 ft 19 kts 199°
2026-05-05 13:37 49.90475 -97.23393 774 ft 20 kts 199°
2026-05-05 13:38 49.90332 -97.23454 773 ft 21 kts 171°
2026-05-05 13:38 49.90210 -97.23316 772 ft 22 kts 137°
2026-05-05 13:38 49.90170 -97.23165 771 ft 15 kts 90°
2026-05-05 13:38 49.90180 -97.22996 770 ft 16 kts 98°
2026-05-05 13:39 49.90132 -97.22883 769 ft 10 kts 186°
2026-05-05 13:39 49.90090 -97.22938 769 ft 8 kts 228°
2026-05-05 13:39 49.90068 -97.22977 769 ft 0 kts 229°